{"data":{"norad_id":61204,"epoch":"2026-05-25T01:22:31.724832Z","epoch_age_seconds":60326,"freshness":"FRESH","line1":"1 61204U 24171E   26145.05731163  .00002026  00000+0  21569-4 0  9998","line2":"2 61204  53.1576 159.7591 0000723  71.0900 289.0196 15.69710363 96391","mean_motion":15.69710363,"eccentricity":7.23e-5,"inclination_deg":53.1576,"raan_deg":159.7591,"arg_perigee_deg":71.09,"mean_anomaly_deg":289.0196,"bstar":2.1569e-5,"rev_number":9639,"period_min":91.736669002293,"perigee_km":359.23856417888,"apogee_km":360.21285912698,"semimajor_km":6737.8627116529,"source":"CELESTRAK","updated_at":"2026-05-25T13:38:19.359116Z"}}